Simultaneous Nadir Overpasses (SNOs) Predictions

Prediction of SNOs between GOES-17 and NOAA-19 Satellite Orbit:

Table of predicted SNOs for the next 14.0 days since TLE Epoch: 7/15/2023
Index Date Time (GOES-17) GOES-17 Lat,Lon NOAA-19 Lat,Lon Distance(km) Time Diff (sec)
1 07/15/2023 03:46:08 0.01,-104.70 0.00,-106.42 190.69 80
2 07/16/2023 03:31:18 0.01,-104.70 0.29,-103.40 148.65 80
3 07/17/2023 03:19:16 0.01,-104.70 0.99,-100.47 483.29 80
4 07/18/2023 15:51:16 -0.01,-104.74 0.80,-108.14 388.91 80
5 07/19/2023 15:39:13 -0.00,-104.74 0.13,-105.20 53.87 80
6 07/20/2023 15:29:50 -0.00,-104.74 -0.59,-102.28 281.44 80
7 07/23/2023 03:50:01 0.00,-104.71 -0.52,-107.07 269.24 80
8 07/24/2023 03:35:17 0.00,-104.71 0.14,-104.13 65.90 80
9 07/25/2023 03:23:14 0.00,-104.71 0.80,-101.19 401.01 80
10 07/26/2023 15:55:13 -0.01,-104.74 0.92,-108.87 470.55 80
11 07/27/2023 15:43:10 -0.01,-104.74 0.24,-105.93 135.48 80
12 07/28/2023 15:33:46 -0.01,-104.74 -0.44,-103.00 199.51 80
